Regional Weather Roundup
Issued by NWS

Home | Current Version | Previous Version | Text Only | Print | Product List | Glossary On
Versions: 1 2 3 4 5 6 7 8 9 10 11 12 13 14 15 16 17 18 19 20 21 22 23 24 25 26 27 28 29 30 31 32 33 34 35 36 37 38 39 40 41 42 43 44 45 46 47 48 49 50
000
ASUS43 KMPX 222110
RWRMN
WEATHER ROUNDUP FOR MINNESOTA
NATIONAL WEATHER SERVICE TWIN CITIES/CHANHASSEN MN
400 PM CDT TUE MAY 22 2018


NOTE: "FAIR" INDICATES FEW OR NO CLOUDS BELOW 12,000 FEET WITH NO
SIGNIFICANT WEATHER AND/OR OBSTRUCTIONS TO VISIBILITY. N/A MEANS
CURRENT SKY AND/OR WEATHER CONDITIONS ARE NOT AVAILABLE.

MNZ060>063-068>070-222200-
   Twin Cities Metro

CITY           SKY/WX    TMP DP  RH WIND       PRES   REMARKS
TWIN CITIES    PTSUNNY   73  57  57 E7        30.03F
ST PAUL        CLOUDY    73  58  59 SE7       30.03F
CRYSTAL        CLOUDY    74  55  51 E3        30.01F
BLAINE         PTSUNNY   73  57  56 VRB3      30.03F
LAKEVILLE      PTSUNNY   73  57  56 SE6       30.03F
EDEN PRAIRIE   FAIR      74  57  55 S7        30.02F
SOUTH ST PAUL  FAIR      74  56  52 SE6       30.03S
LAKE ELMO      CLOUDY    72  59  64 S6        30.05S
$$
MNZ001>005-007-008-013>017-022>024-027-028-222200-
   Northwest Minnesota

CITY           SKY/WX    TMP DP  RH WIND       PRES   REMARKS
BEMIDJI        PTSUNNY   73  54  51 E5        30.00S
HALLOCK        FAIR      79  54  41 SW9       29.93F
ROSEAU         FAIR      79  57  47 SW6       29.97F
WARROAD        FAIR      72  55  56 NE10      29.98S
THIEF RVR FALL PTSUNNY   75  54  47 SW3       29.98F
CROOKSTON      FAIR      79  54  41 S6        29.96S
FOSSTON        FAIR      77  52  41 CALM      29.99F
DETROIT LAKES  FAIR      73  55  53 SE5       30.01S
MOORHEAD       FAIR      79  52  38 S6        29.96F
PARK RAPIDS    FAIR      73  54  51 VRB3      30.00F
MAHNOMEN       FAIR      74  55  51 S7        29.99S
$$
MNZ006-009>011-018-025>026-222200-
   North Central Minnesota

CITY           SKY/WX    TMP DP  RH WIND       PRES   REMARKS
BAUDETTE       FAIR      78  44  29 VRB5      29.99S
FLAG ISLAND    FAIR      72  46  40 SE8       29.98R
INTL FALLS     FAIR      80  40  23 VRB5      29.98F
WASKISH          N/A     72  55  56 NW8       30.00S
BIG FORK       FAIR      79  55  44 S8        30.00S
LONGVILLE      FAIR      73  54  49 CALM      30.01F
GRAND RAPIDS   FAIR      73  54  51 VRB3      30.03F
CRANE LAKE     FAIR      75  36  23 CALM      29.99F
ORR            FAIR      79  39  24 NW7       29.96F
COOK           FAIR      77  48  36 CALM      29.99F
WALKER         FAIR      71  55  56 E6        30.00F
$$
MNZ012-019>021-037-222200-
   Northeast Minnesota

CITY           SKY/WX    TMP DP  RH WIND       PRES   REMARKS
DULUTH         PTSUNNY   74  53  48 SW9       30.01F
ELY            FAIR      77  39  25 CALM      29.99F
HIBBING        PTSUNNY   75  53  46 VRB7      30.00S
EVELETH        FAIR      73  52  46 S3        30.01S
DULUTH HARBOR  FAIR      64  57  77 E6        30.00F
TWO HARBORS    FAIR      81  61  50 S12       29.98S
SILVER BAY     FAIR      75  54  46 S12       29.98S
GRAND MARAIS     N/A     51  40  65 SW12      29.99F
G MARAIS ARPRT FAIR      72  36  26 S8        30.02S
$$
MNZ029>031-032-039>041-046>048-054>057-064-222200-
   West Central Minnesota

CITY           SKY/WX    TMP DP  RH WIND       PRES   REMARKS
FERGUS FALLS   FAIR      75  55  50 SE9       29.94S
WHEATON        MOSUNNY   79  46  31 CALM      29.98R
MORRIS         MOSUNNY   81  54  39 E14       29.97S
ALEXANDRIA     FAIR      77  56  48 S8        30.02F
ELBOW LAKE     PTSUNNY   78  55  45 S5        29.99S
WADENA         PTSUNNY   73  55  53 SE5       30.00S
GLENWOOD       FAIR      77  55  47 SE8       30.02S
APPLETON       SUNNY     81  54  39 CALM      29.97S
BENSON         MOSUNNY   77  55  47 SE7       30.00S
ORTONVILLE     SUNNY     81  55  41 SE9       29.97S
MADISON        MOSUNNY   82  57  42 S3        29.96F
WILLMAR        FAIR      73  59  60 SE5       30.03S
$$
MNZ033>034-036-042>043-049>051-058-059-222200-
   Central Minnesota

CITY           SKY/WX    TMP DP  RH WIND       PRES   REMARKS
ST CLOUD       PTSUNNY   73  55  53 SE6       30.02S
SAUK CENTRE    FAIR      72  56  57 S5        30.03R
PAYNESVILLE    FAIR      72  59  62 CALM      30.03S
PINE RIVER     FAIR      70  54  56 CALM      30.04F
BRAINERD       FAIR      74  53  48 VRB3      30.02S
STAPLES        FAIR      75  54  46 S7        30.01F
LONG PRAIRIE   FAIR      72  54  53 CALM      30.02F
LITTLE FALLS   CLOUDY    72  54  53 E6        30.02F
LITCHFIELD     FAIR      73  59  60 CALM      30.02S
BUFFALO        FAIR      73  55  52 S6        30.03F
MAPLE LAKE     PTSUNNY   75  58  55 SE3       30.03F
HUTCHINSON     FAIR      76  61  58 NE5       30.02F
$$
MNZ037-044-045-052-053-222200-
   East Central Minnesota

CITY           SKY/WX    TMP DP  RH WIND       PRES   REMARKS
PRINCETON      CLOUDY    75  55  50 CALM      30.02F
MORA           PTSUNNY   70  54  56 CALM      30.04F
CAMBRIDGE      PTSUNNY   75  57  53 CALM      30.03S
RUSH CITY      CLOUDY    71  55  55 CALM      30.03S
MOOSE LAKE     PTSUNNY   73  52  46 CALM      30.01S
HINCKLEY       CLOUDY    72  55  56 CALM      30.02F
CLOQUET        FAIR      73  48  40 S7        30.01S
MCGREGOR       CLOUDY    73  54  49 W6        30.03S
$$
MNZ071>073-080-081-089-090-097-098-222200-
   Southwest Minnesota

CITY           SKY/WX    TMP DP  RH WIND       PRES   REMARKS
MONTEVIDEO     SUNNY     82  55  39 SW3       29.99S
GRANITE FALLS  MOSUNNY   80  59  49 SE3       30.00F
CANBY          MOSUNNY   81  57  43 SE10      29.98S
MARSHALL       MOSUNNY   79  59  50 SE10      29.98F
REDWOOD FALLS  MOSUNNY   75  60  59 SE8       30.00S
OLIVIA         PTSUNNY   73  59  60 SE7       30.00S
PIPESTONE      MOSUNNY   79  61  53 S14G20    29.98S
WINDOM         SUNNY     79  52  38 S8        29.99F
WORTHINGTON      N/A     77  61  57 S14       30.00F
JACKSON        MOSUNNY   77  59  53 S9        30.01F
TRACY          MOSUNNY   80  60  50 SE9       29.98F
SLAYTON        PTSUNNY   80  59  48 SE14      30.00S
$$
MNZ065>067-074>077-082>085-091>093-222200-
   South Central Minnesota

CITY           SKY/WX    TMP DP  RH WIND       PRES   REMARKS
MANKATO        FAIR      77  57  50 SE10      30.01F
NEW ULM        MOSUNNY   79  55  44 SW3G16    29.99F
ST JAMES       SUNNY     79  55  44 CALM      30.01S
FAIRMONT       MOSUNNY   77  59  53 SE8         N/A
GLENCOE        PTSUNNY   76  56  48 SE7       30.01S
FARIBAULT      FAIR      75  55  50 CALM      30.04S
OWATONNA       FAIR      73  59  60 SE8       30.03F
WASECA         FAIR      77  55  47 E5        30.03F
ALBERT LEA     FAIR      73  55  53 E3        30.02F
$$
MNZ078>079-086>088-094>096-222200-
   Southeast Minnesota

CITY           SKY/WX    TMP DP  RH WIND       PRES   REMARKS
ROCHESTER      PTSUNNY   71  60  68 MISG      30.06F
RED WING       FAIR      72  52  49 SE7       30.04S
STANTON        CLOUDY    74  58  55 SE6       30.02F
DODGE CENTER   FAIR      72  57  60 E6        30.05F
WINONA         CLOUDY    63  55  77 CALM      30.04F
AUSTIN         FAIR      73  55  53 E5        30.03F
PRESTON        PTSUNNY   69  58  67 SE6       30.07F
$$
ABBREVIATIONS USED IN REMARKS
   TC - TEMPERATURES IN CELSIUS
  WCI - WIND CHILL INDEX
   HX - HEAT INDEX
  VSB - VISIBILITY
$$



USA.gov is the U.S. government's official web portal to all federal, state and local government web resources and services.